Weather History for Kenosha, WI

Change the Weather History Date:

Saturday, February 2, 2013

  Actual Average Record
Temperature  
Mean Temperature 9 °F -  
Max Temperature 17 °F 31 °F 48 °F (1987)
Min Temperature 1 °F 14 °F -16 °F (1951)
Degree Days  
Heating Degree Days 56    
Moisture  
Dew Point 7 °F    
Average Humidity 77    
Maximum Humidity 88    
Minimum Humidity 61    
Precipitation  
Precipitation 0.04 in - - ()
Sea Level Pressure  
Sea Level Pressure 30.05 in    
Wind  
Wind Speed 5 mph (WNW)    
Max Wind Speed 13 mph    
Max Gust Speed -    
Visibility 4 miles    
Events Snow    
Averages and records for this station are not official NWS values.
T = Trace of Precipitation, MM = Missing Value Source: NWS Daily Summary

Daily Weather History Graph

Daily Weather History Graph

Search for Another Location

Airport:

Trip Planner

Search our weather history database for the weather conditions in past years. The results will help you decide how hot, cold, wet, or windy it might be!

Date:

Astronomy

Feb. 02, 2013 Rise Set
Actual Time 7:04 AM CST 5:07 PM CST
Civil Twilight 6:34 AM CST 5:36 PM CST
Nautical Twilight 6:01 AM CST 6:10 PM CST
Astronomical Twilight 5:28 AM CST 6:43 PM CST
Moon No Moon Rise 10:04 AM CST (2/2)
Length of Visible Light 11h 02m
Length of Day
10h 02m
Waning Gibbous, 59% of the Moon is Illuminated
Feb 2
Waning Gibbous
Feb 3
Last Quarter
Feb 10
New
Feb 17
First Quarter
Feb 25
Full

Hourly Weather History & Observations

Time (CST) Temp. Windchill Dew Point Humidity Pressure Visibility Wind Dir Wind Speed Gust Speed Precip Events Conditions
12:34 AM 12.2 °F 4.3 °F 6.8 °F 79% 30.11 in 2.0 mi SSW 4.6 mph - 0.00 in Snow Light Snow
12:41 AM 12.2 °F 2.9 °F 6.8 °F 79% 30.11 in 1.8 mi South 5.8 mph - 0.01 in Snow Light Snow
12:53 AM 12.0 °F 4.1 °F 7.0 °F 80% 30.15 in 1.8 mi South 4.6 mph - 0.01 in Snow Light Snow
1:53 AM 12.9 °F 3.8 °F 9.0 °F 84% 30.13 in 1.5 mi South 5.8 mph - 0.00 in Snow Light Snow
3:04 AM 15.8 °F 6.1 °F 10.4 °F 79% 30.04 in 0.8 mi SSW 6.9 mph - 0.00 in Snow Light Snow
3:27 AM 15.8 °F 7.2 °F 10.4 °F 79% 30.02 in 1.0 mi SSW 5.8 mph - 0.01 in Snow Light Snow
3:43 AM 15.8 °F 7.2 °F 10.4 °F 79% 30.02 in 0.8 mi SSW 5.8 mph - 0.02 in Snow Light Snow
3:53 AM 15.1 °F 7.7 °F 10.9 °F 84% 30.06 in 0.8 mi SSW 4.6 mph - 0.02 in Snow Light Snow
4:03 AM 15.8 °F 10.2 °F 10.4 °F 79% 30.01 in 1.2 mi SW 3.5 mph - 0.00 in Snow Light Snow
4:17 AM 15.8 °F 10.2 °F 12.2 °F 86% 30.01 in 3.0 mi SW 3.5 mph - 0.01 in Snow Light Snow
4:53 AM 16.0 °F - 12.0 °F 84% 30.05 in 4.0 mi Calm Calm - 0.01 in Snow Light Snow
5:08 AM 17.6 °F 12.3 °F 12.2 °F 79% 30.00 in 2.0 mi SW 3.5 mph - 0.00 in Snow Light Snow
5:18 AM 17.6 °F - 12.2 °F 79% 30.00 in 1.5 mi Calm Calm - 0.00 in Snow Light Snow
5:34 AM 17.6 °F 10.7 °F 12.2 °F 79% 30.00 in 1.8 mi SW 4.6 mph - 0.00 in Snow Light Snow
5:37 AM 17.6 °F 12.3 °F 12.2 °F 79% 30.00 in 2.0 mi SW 3.5 mph - 0.00 in Snow Light Snow
5:42 AM 17.6 °F 12.3 °F 12.2 °F 79% 29.99 in 3.0 mi SW 3.5 mph - 0.00 in Snow Light Snow
5:53 AM 17.1 °F - 14.0 °F 88% 30.04 in 4.0 mi Calm Calm - 0.00 in Snow Light Snow
6:03 AM 17.6 °F - 14.0 °F 86% 30.00 in 1.8 mi Calm Calm - 0.00 in Snow Light Snow
6:12 AM 17.6 °F 12.3 °F 14.0 °F 86% 30.00 in 2.0 mi NW 3.5 mph - 0.00 in Snow Light Snow
6:23 AM 17.6 °F - 14.0 °F 86% 30.00 in 1.8 mi Calm Calm - 0.00 in Snow Light Snow
6:33 AM 17.6 °F - 14.0 °F 86% 30.00 in 2.0 mi Calm Calm - 0.00 in Snow Light Snow
6:53 AM 17.1 °F - 12.9 °F 84% 30.04 in 2.0 mi Calm Calm - 0.00 in Snow Light Snow
7:09 AM 17.6 °F 10.7 °F 12.2 °F 79% 30.00 in 2.5 mi NNW 4.6 mph - 0.00 in Snow Light Snow
7:18 AM 15.8 °F 6.1 °F 12.2 °F 86% 30.00 in 1.8 mi North 6.9 mph - 0.00 in Snow Light Snow
7:29 AM 15.8 °F 4.2 °F 10.4 °F 79% 30.01 in 1.8 mi North 9.2 mph - 0.00 in Snow Light Snow
7:53 AM 12.9 °F -0.2 °F 9.0 °F 84% 30.07 in 1.5 mi North 10.4 mph - 0.00 in Snow Light Snow
8:00 AM 12.2 °F -0.2 °F 8.6 °F 85% 30.02 in 0.8 mi North 9.2 mph - 0.00 in Snow Light Snow
8:30 AM 10.4 °F -4.1 °F 6.8 °F 85% 30.03 in 1.0 mi North 11.5 mph - 0.00 in Snow Light Snow
8:53 AM 10.9 °F -4.1 °F 6.1 °F 81% 30.09 in 1.8 mi North 12.7 mph - 0.00 in Snow Light Snow
9:02 AM 10.4 °F -3.3 °F 6.8 °F 85% 30.04 in 2.5 mi North 10.4 mph - 0.00 in Snow Light Snow
9:48 AM 10.4 °F -4.1 °F 5.0 °F 79% 30.04 in 2.0 mi NNW 11.5 mph - 0.00 in Snow Light Snow
9:53 AM 10.9 °F -2.6 °F 5.0 °F 77% 30.09 in 2.0 mi North 10.4 mph - 0.00 in Snow Light Snow
10:00 AM 10.4 °F -1.5 °F 5.0 °F 79% 30.04 in 1.2 mi NNW 8.1 mph - 0.00 in Snow Light Snow
10:18 AM 10.4 °F -4.1 °F 5.0 °F 79% 30.05 in 1.5 mi North 11.5 mph - 0.00 in Snow Light Snow
10:43 AM 12.2 °F -0.2 °F 5.0 °F 73% 30.05 in 4.0 mi North 9.2 mph - 0.00 in   Haze
10:53 AM 12.0 °F 0.5 °F 3.9 °F 70% 30.09 in 4.0 mi North 8.1 mph - 0.00 in   Haze
11:53 AM 12.0 °F -2.0 °F 3.0 °F 67% 30.09 in 10.0 mi NNW 11.5 mph - N/A   Overcast
12:53 PM 12.9 °F 0.7 °F 1.9 °F 62% 30.09 in 10.0 mi North 9.2 mph - N/A   Overcast
1:53 PM 12.9 °F 1.6 °F 1.9 °F 62% 30.09 in 10.0 mi NNW 8.1 mph - N/A   Scattered Clouds
2:53 PM 14.0 °F 3.9 °F 3.0 °F 62% 30.10 in 10.0 mi North 6.9 mph - N/A   Clear
3:53 PM 12.0 °F 1.5 °F 1.0 °F 61% 30.11 in 10.0 mi NW 6.9 mph - N/A   Clear
4:53 PM 10.0 °F -0.9 °F 1.0 °F 67% 30.11 in 10.0 mi West 6.9 mph - N/A   Clear
5:53 PM 10.0 °F -1.9 °F -0.0 °F 64% 30.11 in 10.0 mi WNW 8.1 mph - N/A   Scattered Clouds
6:53 PM 9.0 °F -5.9 °F -0.9 °F 64% 30.13 in 10.0 mi WNW 11.5 mph - N/A   Mostly Cloudy
7:53 PM 8.1 °F -5.3 °F -0.9 °F 67% 30.12 in 10.0 mi NW 9.2 mph - N/A   Overcast
8:53 PM 7.0 °F -1.7 °F -2.0 °F 67% 30.10 in 10.0 mi WNW 4.6 mph - N/A   Mostly Cloudy
9:53 PM 1.0 °F -6.7 °F -6.0 °F 72% 30.09 in 9.0 mi West 3.5 mph - N/A   Scattered Clouds
10:53 PM 3.9 °F - -2.9 °F 73% 30.07 in 10.0 mi Calm Calm - N/A   Overcast
11:53 PM 7.0 °F 0.1 °F -2.9 °F 64% 30.06 in 10.0 mi NW 3.5 mph - N/A   Overcast